| time (UTC) | temp F | wind direction | speed MPH | gust MPH | rain 1hr in | rain 24hr in | rain mn in | humidity % | barometer mb |
| 20260504020023 | 58 | 302 | 2.0 | 7.0 | 0.00 | 0.00 | 0.00 | 81 | 1032.4 |
| 20260504014510 | 58 | 82 | 1.0 | 5.0 | 0.00 | 0.00 | 0.00 | 79 | 1032.4 |
| 20260504013028 | 58 | 230 | 3.0 | 8.0 | 0.00 | 0.00 | 0.00 | 79 | 1032.5 |
| 20260504011520 | 58 | 234 | 2.0 | 9.0 | 0.00 | 0.00 | 0.00 | 80 | 1032.6 |
| 20260504010023 | 58 | 316 | 1.0 | 7.0 | 0.00 | 0.00 | 0.00 | 81 | 1032.7 |
| 20260504004531 | 58 | 344 | 3.0 | 8.0 | 0.00 | 0.00 | 0.00 | 80 | 1032.7 |
| 20260504003009 | 58 | 222 | 3.0 | 13.0 | 0.00 | 0.00 | 0.00 | 77 | 1032.9 |
| 20260504001517 | 59 | 270 | 3.0 | 10.0 | 0.00 | 0.00 | 0.00 | 79 | 1032.9 |
| 20260504000020 | 60 | 117 | 2.0 | 7.0 | 0.00 | 0.00 | 0.00 | 79 | 1033.2 |
| 20260503234526 | 60 | 232 | 2.0 | 10.0 | 0.00 | 0.00 | 0.00 | 82 | 1033.2 |
| 20260503233027 | 59 | 259 | 1.0 | 8.0 | 0.00 | 0.00 | 0.00 | 84 | 1033.4 |
| 20260503231510 | 59 | 270 | 1.0 | 11.0 | 0.00 | 0.00 | 0.00 | 82 | 1033.4 |
| 20260503230019 | 59 | 15 | 1.0 | 6.0 | 0.00 | 0.00 | 0.00 | 83 | 1033.4 |
| 20260503224520 | 58 | 285 | 3.0 | 7.0 | 0.00 | 0.00 | 0.00 | 83 | 1033.4 |
| 20260503223026 | 58 | 271 | 2.0 | 8.0 | 0.00 | 0.00 | 0.00 | 84 | 1033.3 |
| 20260503221525 | 58 | 257 | 1.0 | 5.0 | 0.00 | 0.00 | 0.00 | 83 | 1033.3 |
| 20260503220016 | 57 | 225 | 3.0 | 8.0 | 0.00 | 0.00 | 0.00 | 84 | 1033.4 |
| 20260503214520 | 57 | 270 | 2.0 | 7.0 | 0.00 | 0.00 | 0.00 | 85 | 1033.4 |
| 20260503213026 | 57 | 257 | 1.0 | 7.0 | 0.00 | 0.00 | 0.00 | 85 | 1033.4 |
| 20260503211526 | 57 | 346 | 1.0 | 7.0 | 0.00 | 0.00 | 0.00 | 85 | 1033.4 |
| 20260503210026 | 56 | 215 | 1.0 | 8.0 | 0.00 | 0.00 | 0.00 | 85 | 1033.5 |
| 20260503204518 | 55 | 297 | 2.0 | 8.0 | 0.00 | 0.00 | 0.00 | 83 | 1033.5 |
| 20260503203042 | 55 | 56 | 1.0 | 8.0 | 0.00 | 0.00 | 0.00 | 86 | 1033.4 |
| 20260503201528 | 55 | 241 | 2.0 | 5.0 | 0.00 | 0.00 | 0.00 | 87 | 1033.3 |
| 20260503200027 | 54 | 293 | 1.0 | 6.0 | 0.00 | 0.00 | 0.00 | 86 | 1033.2 |
| 20260503194538 | 54 | 270 | 1.0 | 5.0 | 0.00 | 0.00 | 0.00 | 85 | 1032.9 |
| 20260503193018 | 54 | 307 | 1.0 | 5.0 | 0.00 | 0.00 | 0.00 | 85 | 1032.8 |
| 20260503191524 | 54 | 245 | 0.0 | 6.0 | 0.00 | 0.00 | 0.00 | 85 | 1032.6 |
| 20260503190035 | 54 | 279 | 1.0 | 9.0 | 0.00 | 0.00 | 0.00 | 85 | 1032.6 |
| 20260503190012 | 54 | 266 | 1.0 | 9.0 | 0.00 | 0.00 | 0.00 | 85 | 1032.6 |
| 20260503184519 | 54 | 232 | 1.0 | 8.0 | 0.00 | 0.00 | 0.00 | 85 | 1032.5 |
| 20260503183008 | 54 | 245 | 1.0 | 6.0 | 0.00 | 0.00 | 0.00 | 85 | 1032.6 |
| 20260503181510 | 54 | 233 | 1.0 | 4.0 | 0.00 | 0.00 | 0.00 | 86 | 1032.6 |
| 20260503180006 | 54 | 302 | 1.0 | 4.0 | 0.00 | 0.00 | 0.00 | 86 | 1032.6 |
| 20260503174510 | 54 | 278 | 1.0 | 9.0 | 0.00 | 0.00 | 0.00 | 86 | 1032.5 |
| 20260503173012 | 54 | 201 | 1.0 | 11.0 | 0.00 | 0.00 | 0.00 | 85 | 1032.4 |
| 20260503171510 | 54 | 79 | 1.0 | 5.0 | 0.00 | 0.00 | 0.00 | 86 | 1032.6 |
| 20260503081525 | 52 | 243 | 1.0 | 5.0 | 0.00 | 0.00 | 0.00 | 89 | 1032.7 |
| 20260503071516 | 52 | 240 | 0.0 | 5.0 | 0.00 | 0.00 | 0.00 | 90 | 1032.4 |
| 20260503054526 | 53 | 258 | 0.0 | 4.0 | 0.00 | 0.00 | 0.00 | 88 | 1032.4 |
| 20260503053034 | 53 | 224 | 1.0 | 8.0 | 0.00 | 0.00 | 0.00 | 87 | 1032.3 |
| 20260503051524 | 53 | 277 | 1.0 | 6.0 | 0.00 | 0.00 | 0.00 | 86 | 1032.3 |
| 20260503050024 | 54 | 240 | 0.0 | 3.0 | 0.00 | 0.00 | 0.00 | 86 | 1032.2 |
| 20260503044515 | 54 | 132 | 1.0 | 6.0 | 0.00 | 0.00 | 0.00 | 85 | 1032.3 |
| 20260503043025 | 55 | 8 | 1.0 | 5.0 | 0.00 | 0.00 | 0.00 | 84 | 1032.3 |
| 20260503041522 | 55 | 243 | 1.0 | 9.0 | 0.00 | 0.00 | 0.00 | 82 | 1032.4 |
| 20260503040033 | 56 | 264 | 1.0 | 5.0 | 0.00 | 0.00 | 0.00 | 81 | 1032.3 |
| 20260503034524 | 57 | 244 | 1.0 | 6.0 | 0.00 | 0.00 | 0.00 | 80 | 1032.5 |
| 20260503033016 | 57 | 236 | 2.0 | 5.0 | 0.00 | 0.00 | 0.00 | 82 | 1032.6 |
| 20260503031522 | 57 | 241 | 1.0 | 5.0 | 0.00 | 0.00 | 0.00 | 82 | 1032.7 |
| 20260503030027 | 57 | 273 | 1.0 | 6.0 | 0.00 | 0.00 | 0.00 | 81 | 1032.6 |
| 20260503024524 | 58 | 316 | 2.0 | 6.0 | 0.00 | 0.00 | 0.00 | 81 | 1032.6 |
| 20260503023027 | 58 | 144 | 1.0 | 7.0 | 0.00 | 0.00 | 0.00 | 80 | 1032.6 |
| 20260503021517 | 58 | 342 | 2.0 | 6.0 | 0.00 | 0.00 | 0.00 | 80 | 1032.7 |